Regional Weather Roundup
Issued by NWS State College, PA

Home | Current Version | Previous Version | Text Only | Print | Product List | Glossary Off
Versions: 1 2 3 4 5 6 7 8 9 10 11 12 13 14 15 16 17 18 19 20 21 22 23 24 25 26 27 28 29 30 31 32 33 34 35 36 37 38 39 40 41 42 43 44 45 46 47 48 49 50

000
ASUS41 KCTP 030903
RWRCTP

REGIONAL WEATHER ROUNDUP
NATIONAL WEATHER SERVICE STATE COLLEGE PA
400 AM EST TUE MAR 03 2015

Note: "fair" indicates few or no clouds below 12,000 feet with no
significant weather and/or obstructions to visibility.

* = STATION THAT DOES NOT REPORT PRECIPITATION /E.G. RAIN...SNOW...ETC/
    THUNDER OR FOG.

PAZ002>004-007>009-013>016-020>023-029>032-031000-
WESTERN PENNSYLVANIA

CITY           SKY/WX    TMP DP  RH WIND       PRES   REMARKS
ERIE           MOCLDY    16   8  71 S6        30.33F WCI   7
MEADVILLE        N/A     15   7  70 VRB3      30.28F
FRANKLIN*      MOCLDY    10   3  72 SE5       30.30S WCI   2
NEW CASTLE     FAIR      18  10  70 CALM      30.31F
BEAVER COUNTY  NOT AVBL
BUTLER*        CLOUDY    18  10  73 SE7       30.30F WCI   8
PITTSBURGH INT CLOUDY    19  14  81 E5        30.28F HAZE    WCI  12
PITTSBURGH     CLOUDY    20  10  65 E9        30.27F WCI   9
INDIANA*       MOCLDY    16  12  86 E3        30.34F
LATROBE        CLOUDY    19  18  93 CALM      30.32S
WASHINGTON CO* CLOUDY    18  14  86 CALM      30.27F
$$

PAZ004>006-010>012-017>019-024>028-033>037-041-042-045-046-049>053-031000-
CENTRAL PENNSYLVANIA

CITY           SKY/WX    TMP DP  RH WIND       PRES   REMARKS
BRADFORD       MOCLDY     1  -4  79 CALM      30.23F
DUBOIS         MOCLDY    12   7  80 CALM      30.27S
CLEARFIELD     MOCLDY     8   3  80 N5        30.31F WCI   0
JOHNSTOWN      CLOUDY    15  10  80 E3        30.23S
ALTOONA        MOCLDY    15   9  76 CALM      30.31F
STATE COLLEGE  MOCLDY    15   8  71 CALM      30.34S
WILLIAMSPORT   FAIR      11   5  77 S5        30.41R WCI   3
SELINSGROVE    CLEAR     12   6  77 CALM      30.41S
FT INDIANTOWN  MOCLDY    20   7  56 E1        30.40R
CAPITAL CITY   PTCLDY    19  11  70 SE5       30.40R WCI  12
HARRISBURG     MOCLDY    23   9  55 NE5       30.39F
YORK           MOCLDY    18  12  77 CALM      30.38S
$$

PAZ038>040-043-044-047-048-054-055-060>062-067>071-031000-
EASTERN PENNSYLVANIA

CITY           SKY/WX    TMP DP  RH WIND       PRES   REMARKS
SCRANTON       CLEAR     12   4  70 CALM      30.35S
MOUNT POCONO   CLEAR      6   1  80 SW3       30.26S
ALLENTOWN      CLEAR     12   3  67 CALM      30.40S
QUAKERTOWN*    MOSUNNY   14   7  73 CALM      30.39S
READING        CLEAR     19   6  57 CALM      30.40S
LANCASTER      PTCLDY    20   8  60 N8        30.40R WCI  10
COATESVILLE    SUNNY     23  10  58 N3        30.38R
POTTSTOWN      PTCLDY    21   7  54 NW5       30.41S WCI  15
BLUE BELL      CLEAR     27  10  50 CALM      30.39F
DOYLESTOWN     CLEAR     18   9  68 N5        30.38S WCI  11
WILLOW GROVE   NOT AVBL
NORTH PHILA    CLEAR     24   8  50 N7        30.42F
PHILADELPHIA   PTCLDY    26  10  50 N12       30.43S
$$


USA.gov is the U.S. government's official web portal to all federal, state and local government web resources and services.